EWG2WZ LEIB-EDDS

Flight info

Callsign EWG2WZ
Flight time N/A
Altitude 34000
Route KABRE DCT ELTAN N853 LUMAS DCT UNANA DCT STP DCT RAPED DCT PIGOS DCT EKSID DCT NOSTA DCT NOPMU DCT SRN DCT PEPAG DCT ABESI N851 ROMIR T125 REUTL REUTL5A
Aircraft A321/M-SDE3FGHIRWY/LB1

Departure

Time N/A
Airport Ibiza Airport (LEIB)

Arrival

Time 2026-05-01 14:35
Airport Stuttgart Airport (EDDS)
Time Latitude Longitude Altitude Speed Heading
2026-05-01 13:38 43.32782 6.80677 36343 ft 454 kts 51°
2026-05-01 13:38 43.34634 6.84186 36345 ft 453 kts 51°
2026-05-01 13:39 43.38327 6.91208 36355 ft 453 kts 51°
2026-05-01 13:39 43.42002 6.98227 36358 ft 452 kts 51°
2026-05-01 13:40 43.45664 7.05245 36357 ft 451 kts 51°
2026-05-01 13:40 43.49327 7.12263 36354 ft 451 kts 51°
2026-05-01 13:41 43.52985 7.19285 36352 ft 451 kts 51°
2026-05-01 13:41 43.56638 7.26307 36349 ft 451 kts 51°
2026-05-01 13:42 43.60255 7.33299 36352 ft 450 kts 51°
2026-05-01 13:42 43.63910 7.40385 36352 ft 450 kts 51°
2026-05-01 13:43 43.67515 7.47371 36350 ft 449 kts 51°
2026-05-01 13:43 43.71138 7.54402 36343 ft 449 kts 51°
2026-05-01 13:44 43.74747 7.61444 36354 ft 449 kts 51°
2026-05-01 13:44 43.78350 7.68483 36348 ft 448 kts 52°
2026-05-01 13:45 43.82113 7.75313 36345 ft 444 kts 42°
2026-05-01 13:45 43.86822 7.80757 36336 ft 440 kts 34°
2026-05-01 13:46 43.91655 7.85947 36332 ft 440 kts 35°
2026-05-01 13:46 43.96692 7.90685 36330 ft 435 kts 23°
2026-05-01 13:47 44.02190 7.94208 36325 ft 435 kts 22°
2026-05-01 13:47 44.07691 7.97747 36334 ft 435 kts 22°
2026-05-01 13:48 44.13182 8.01304 36327 ft 435 kts 22°
2026-05-01 13:48 44.18666 8.04863 36327 ft 435 kts 22°
2026-05-01 13:49 44.24164 8.08430 36327 ft 436 kts 22°
2026-05-01 13:49 44.29656 8.12004 36336 ft 436 kts 22°
2026-05-01 13:50 44.35158 8.15590 36360 ft 436 kts 23°
2026-05-01 13:50 44.40654 8.19181 36360 ft 436 kts 23°
2026-05-01 13:51 44.46117 8.22755 36356 ft 437 kts 23°
2026-05-01 13:51 44.51620 8.26354 36360 ft 437 kts 23°
2026-05-01 13:52 44.57120 8.29966 36363 ft 437 kts 23°
2026-05-01 13:52 44.62617 8.33596 36363 ft 437 kts 23°
2026-05-01 13:53 44.68113 8.37220 36371 ft 435 kts 23°
2026-05-01 13:53 44.76317 8.42641 36375 ft 434 kts 23°
2026-05-01 13:54 44.81769 8.46259 36376 ft 433 kts 23°
2026-05-01 13:54 44.86292 8.49266 36376 ft 432 kts 23°
2026-05-01 13:55 44.91731 8.52890 36373 ft 432 kts 24°
2026-05-01 13:55 44.97163 8.56518 36372 ft 432 kts 24°
2026-05-01 13:56 45.02599 8.60148 36396 ft 432 kts 23°
2026-05-01 13:56 45.08031 8.63788 36400 ft 432 kts 24°
2026-05-01 13:57 45.13459 8.67442 36400 ft 432 kts 24°
2026-05-01 13:57 45.18882 8.71092 36398 ft 432 kts 24°
2026-05-01 13:58 45.24308 8.74755 36351 ft 432 kts 24°
2026-05-01 13:58 45.29734 8.78417 36349 ft 432 kts 24°
2026-05-01 13:59 45.35161 8.82084 36350 ft 432 kts 24°
2026-05-01 13:59 45.40588 8.85763 36354 ft 432 kts 24°
2026-05-01 14:00 45.46014 8.89455 36389 ft 432 kts 24°
2026-05-01 14:00 45.51444 8.93163 36389 ft 433 kts 24°
2026-05-01 14:01 45.56877 8.96869 36390 ft 433 kts 24°
2026-05-01 14:01 45.62278 9.00543 36391 ft 433 kts 21°
2026-05-01 14:02 45.68068 9.02668 36372 ft 430 kts
2026-05-01 14:02 45.74021 9.03529 36373 ft 430 kts
2026-05-01 14:03 45.79982 9.04416 36372 ft 430 kts
2026-05-01 14:03 45.85944 9.05305 36374 ft 431 kts
2026-05-01 14:04 45.91909 9.06190 36372 ft 431 kts
2026-05-01 14:04 45.97876 9.06987 36372 ft 430 kts
2026-05-01 14:05 46.03833 9.06265 36372 ft 430 kts 353°
2026-05-01 14:05 46.09784 9.05287 36371 ft 430 kts 353°
2026-05-01 14:06 46.15735 9.04322 36373 ft 431 kts 353°
2026-05-01 14:06 46.21696 9.03447 36372 ft 431 kts 354°
2026-05-01 14:07 46.27674 9.02685 36371 ft 431 kts 355°
2026-05-01 14:08 46.36598 9.01540 36368 ft 431 kts 354°
2026-05-01 14:08 46.42575 9.00737 36351 ft 432 kts 354°
2026-05-01 14:09 46.48553 8.99917 36345 ft 431 kts 354°
2026-05-01 14:09 46.54532 8.99113 36350 ft 431 kts 354°
2026-05-01 14:10 46.60519 8.98313 36352 ft 431 kts 354°
2026-05-01 14:10 46.66497 8.97504 36346 ft 432 kts 354°
2026-05-01 14:11 46.72482 8.96952 36339 ft 431 kts
2026-05-01 14:11 46.81311 8.99511 36326 ft 431 kts 11°
2026-05-01 14:12 46.87151 9.01298 36319 ft 432 kts 11°
2026-05-01 14:12 46.93076 9.03109 36316 ft 433 kts 11°
2026-05-01 14:13 46.97979 9.04611 36314 ft 433 kts 11°
2026-05-01 14:13 47.04826 9.06726 36319 ft 433 kts 11°
2026-05-01 14:14 47.10713 9.08553 36320 ft 433 kts 11°
2026-05-01 14:14 47.13656 9.09462 35972 ft 431 kts 12°
2026-05-01 14:14 47.16585 9.10366 35302 ft 431 kts 12°
2026-05-01 14:15 47.19522 9.11272 34608 ft 432 kts 12°
2026-05-01 14:15 47.22461 9.12182 34042 ft 430 kts 12°
2026-05-01 14:15 47.25376 9.13087 33530 ft 426 kts 12°
2026-05-01 14:15 47.28262 9.13981 33019 ft 421 kts 12°
2026-05-01 14:16 47.31113 9.14866 32518 ft 418 kts 12°
2026-05-01 14:16 47.33953 9.15751 31926 ft 416 kts 12°
2026-05-01 14:16 47.36796 9.16422 31421 ft 413 kts
2026-05-01 14:16 47.39625 9.15913 30918 ft 410 kts 346°
2026-05-01 14:17 47.42366 9.14733 30376 ft 408 kts 344°
2026-05-01 14:17 47.45065 9.13493 29790 ft 406 kts 344°
2026-05-01 14:17 47.47751 9.12252 29216 ft 403 kts 344°
2026-05-01 14:17 47.50412 9.11022 28661 ft 399 kts 344°
2026-05-01 14:18 47.53054 9.09799 28127 ft 396 kts 344°
2026-05-01 14:18 47.55677 9.08584 27602 ft 393 kts 344°
2026-05-01 14:18 47.58275 9.07380 27085 ft 390 kts 344°
2026-05-01 14:18 47.59983 9.06587 26747 ft 388 kts 344°
2026-05-01 14:19 47.63414 9.04994 26061 ft 384 kts 344°
2026-05-01 14:19 47.65954 9.03813 25597 ft 382 kts 344°
2026-05-01 14:19 47.68480 9.02640 25115 ft 379 kts 344°
2026-05-01 14:19 47.70993 9.01470 24630 ft 377 kts 344°
2026-05-01 14:20 47.73488 9.00307 24165 ft 374 kts 344°
2026-05-01 14:20 47.75963 8.99152 23673 ft 372 kts 343°
2026-05-01 14:20 47.77987 8.98209 23227 ft 370 kts 344°
2026-05-01 14:21 47.80435 8.97063 22708 ft 368 kts 344°
2026-05-01 14:21 47.82865 8.95917 22185 ft 365 kts 343°
2026-05-01 14:21 47.85274 8.94783 21662 ft 362 kts 344°
2026-05-01 14:22 47.90057 8.92520 20591 ft 359 kts 345°
2026-05-01 14:22 47.92428 8.91383 20060 ft 357 kts 343°
2026-05-01 14:22 47.94794 8.90254 19548 ft 356 kts 343°
2026-05-01 14:22 47.97153 8.89141 19044 ft 355 kts 343°
2026-05-01 14:23 47.99501 8.88046 18556 ft 353 kts 343°
2026-05-01 14:23 48.01841 8.86944 17996 ft 352 kts 344°
2026-05-01 14:23 48.04166 8.85842 17449 ft 350 kts 343°
2026-05-01 14:23 48.06485 8.84747 16918 ft 348 kts 344°
2026-05-01 14:24 48.08785 8.83668 16436 ft 346 kts 344°
2026-05-01 14:24 48.11078 8.82589 15909 ft 345 kts 343°
2026-05-01 14:24 48.13363 8.81512 15397 ft 344 kts 343°
2026-05-01 14:24 48.15647 8.80430 14919 ft 343 kts 343°
2026-05-01 14:25 48.17884 8.79377 14455 ft 341 kts 344°
2026-05-01 14:25 48.20176 8.78320 13966 ft 339 kts 345°
2026-05-01 14:25 48.22395 8.77318 13466 ft 337 kts 345°
2026-05-01 14:25 48.24667 8.76563 12958 ft 333 kts 358°
2026-05-01 14:26 48.26970 8.76576 12471 ft 330 kts
2026-05-01 14:26 48.31533 8.76874 11535 ft 327 kts
2026-05-01 14:26 48.33802 8.77035 11043 ft 326 kts
2026-05-01 14:27 48.36066 8.77210 10601 ft 325 kts
2026-05-01 14:27 48.38319 8.77399 10134 ft 324 kts
2026-05-01 14:27 48.40566 8.77587 9603 ft 323 kts
2026-05-01 14:28 48.45005 8.78085 8726 ft 316 kts 15°
2026-05-01 14:28 48.47070 8.79168 8257 ft 314 kts 23°
2026-05-01 14:28 48.49089 8.80385 7830 ft 311 kts 24°
2026-05-01 14:28 48.51084 8.81602 7559 ft 304 kts 24°
2026-05-01 14:29 48.53011 8.82763 7391 ft 294 kts 24°
2026-05-01 14:29 48.54889 8.83885 7150 ft 287 kts 24°
2026-05-01 14:30 48.60203 8.87050 6276 ft 261 kts 24°
2026-05-01 14:30 48.61874 8.88082 5977 ft 249 kts 31°
2026-05-01 14:30 48.63046 8.89811 5618 ft 231 kts 68°
2026-05-01 14:31 48.63654 8.94465 4764 ft 224 kts 76°
2026-05-01 14:31 48.64099 8.96704 4438 ft 220 kts 75°
2026-05-01 14:31 48.64528 8.98878 4155 ft 212 kts 75°
2026-05-01 14:31 48.64930 9.00954 3890 ft 202 kts 76°
2026-05-01 14:32 48.65310 9.02933 3612 ft 189 kts 76°
2026-05-01 14:32 48.65662 9.04760 3397 ft 173 kts 76°
2026-05-01 14:32 48.65986 9.06453 3164 ft 164 kts 75°
2026-05-01 14:32 48.66293 9.08063 2956 ft 155 kts 76°
2026-05-01 14:33 48.66583 9.09576 2746 ft 147 kts 74°
2026-05-01 14:33 48.66867 9.11066 2560 ft 145 kts 75°
2026-05-01 14:33 48.67150 9.12548 2344 ft 145 kts 76°
2026-05-01 14:33 48.67426 9.13989 2179 ft 143 kts 76°
2026-05-01 14:34 48.67711 9.15460 1970 ft 146 kts 74°
2026-05-01 14:34 48.67989 9.16930 1770 ft 145 kts 74°
2026-05-01 14:34 48.68267 9.18387 1605 ft 145 kts 75°
2026-05-01 14:34 48.68547 9.19873 1387 ft 147 kts 75°
2026-05-01 14:35 48.68820 9.21318 1267 ft 133 kts 74°
2026-05-01 14:35 48.69037 9.22460 1228 ft 81 kts 74°
2026-05-01 14:35 48.69131 9.22872 1219 ft 25 kts 59°
2026-05-01 14:35 48.69215 9.23024 1216 ft 17 kts 45°
2026-05-01 14:36 48.69298 9.23142 1218 ft 15 kts 33°
2026-05-01 14:36 48.69388 9.23133 1222 ft 13 kts 320°
2026-05-01 14:36 48.69403 9.23006 1225 ft 14 kts 256°
2026-05-01 14:36 48.69375 9.22862 1228 ft 14 kts 254°
2026-05-01 14:37 48.69349 9.22725 1231 ft 13 kts 254°
2026-05-01 14:37 48.69325 9.22600 1240 ft 12 kts 254°
2026-05-01 14:37 48.69304 9.22487 1237 ft 11 kts 254°
2026-05-01 14:37 48.69282 9.22374 1237 ft 12 kts 254°
2026-05-01 14:38 48.69259 9.22250 1252 ft 12 kts 254°
2026-05-01 14:38 48.69237 9.22135 1247 ft 11 kts 254°
2026-05-01 14:38 48.69216 9.22022 1256 ft 12 kts 254°
2026-05-01 14:38 48.69192 9.21898 1251 ft 12 kts 254°
2026-05-01 14:39 48.69172 9.21790 1259 ft 10 kts 254°
2026-05-01 14:39 48.69154 9.21690 1256 ft 9 kts 254°
2026-05-01 14:39 48.69136 9.21596 1260 ft 9 kts 253°
2026-05-01 14:39 48.69119 9.21508 1265 ft 9 kts 255°
2026-05-01 14:40 48.69103 9.21423 1264 ft 8 kts 253°
2026-05-01 14:40 48.69087 9.21340 1266 ft 8 kts 253°
2026-05-01 14:40 48.69071 9.21258 1269 ft 8 kts 253°
2026-05-01 14:40 48.69055 9.21176 1272 ft 8 kts 255°
2026-05-01 14:41 48.69040 9.21093 1274 ft 8 kts 253°
2026-05-01 14:41 48.69024 9.21011 1274 ft 8 kts 253°
2026-05-01 14:41 48.69008 9.20929 1273 ft 8 kts 254°
2026-05-01 14:41 48.68993 9.20847 1275 ft 8 kts 254°
2026-05-01 14:42 48.68983 9.20792 1276 ft 8 kts 254°
2026-05-01 14:42 48.68967 9.20709 1278 ft 8 kts 254°
2026-05-01 14:42 48.68952 9.20626 1280 ft 8 kts 254°
2026-05-01 14:42 48.68936 9.20544 1282 ft 8 kts 253°
2026-05-01 14:43 48.68921 9.20466 1284 ft 8 kts 254°
2026-05-01 14:43 48.68907 9.20392 1286 ft 7 kts 254°
2026-05-01 14:43 48.68893 9.20320 1288 ft 7 kts 254°
2026-05-01 14:43 48.68880 9.20251 1290 ft 7 kts 253°
2026-05-01 14:44 48.68866 9.20181 1291 ft 7 kts 254°
2026-05-01 14:44 48.68832 9.20016 1295 ft 9 kts 244°
2026-05-01 14:44 48.68790 9.19929 1295 ft 12 kts 231°
2026-05-01 14:45 48.68751 9.19814 1298 ft 12 kts 253°
2026-05-01 14:45 48.68710 9.19597 1303 ft 9 kts 253°
2026-05-01 14:45 48.68693 9.19506 1306 ft 9 kts 254°
2026-05-01 14:46 48.68677 9.19422 1308 ft 8 kts 254°
2026-05-01 14:46 48.68648 9.19267 1312 ft 8 kts 254°
2026-05-01 14:46 48.68657 9.19184 1315 ft 9 kts 311°
2026-05-01 14:47 48.68715 9.19148 1318 ft 9 kts 345°
2026-05-01 14:47 48.68766 9.19173 1317 ft 8 kts 55°
2026-05-01 14:47 48.68765 9.19244 1315 ft 7 kts 141°
2026-05-01 14:48 48.68717 9.19264 1314 ft 0 kts 164°